Cape May, NJ

11:42 PM EST on February 21, 2017 (GMT -0500)
Cape May County

Weather History for KWWD - October, 2011

Change the Weather History Date:

Wednesday, October 19, 2011

  Actual Average Record
Temperature  
Mean Temperature 66 °F -  
Max Temperature 69 °F 61 °F 82 °F (2016)
Min Temperature 64 °F 47 °F 32 °F (2015)
Cooling Degree Days 2    
Growing Degree Days 16 (Base 50)    
Moisture  
Dew Point 64 °F    
Average Humidity 89    
Maximum Humidity 94    
Minimum Humidity 88    
Precipitation  
Precipitation 0.53 in - - ()
Sea Level Pressure  
Sea Level Pressure 29.58 in    
Wind  
Wind Speed 9 mph (East)    
Max Wind Speed 17 mph    
Max Gust Speed 28 mph    
Visibility 8 miles    
Events      
Averages and records for this station are not official NWS values.
T = Trace of Precipitation, MM = Missing Value Source: NWS Daily Summary

Daily Weather History Graph

Daily Weather History Graph

Search for Another Location

Airport or City:

Trip Planner

Search our weather history database for the weather conditions in past years. The results will help you decide how hot, cold, wet, or windy it might be!

Date:

Astronomy

Oct. 19, 2011 Rise Set
Actual Time 7:12 AM EDT 6:15 PM EDT
Civil Twilight 6:45 AM EDT 6:42 PM EDT
Nautical Twilight 6:14 AM EDT 7:13 PM EDT
Astronomical Twilight 5:43 AM EDT 7:44 PM EDT
Moon 11:59 PM EDT (10/19) 1:40 PM EDT (10/19)
Length of Visible Light 11h 56m
Length of Day
11h 02m
Waning Gibbous, 55% of the Moon is Illuminated
Oct 19
Waning Gibbous
Oct 19
Last Quarter
Oct 26
New
Nov 2
First Quarter
Nov 10
Full

Hourly Weather History & Observations

Time (EDT) Temp. Dew Point Humidity Pressure Visibility Wind Dir Wind Speed Gust Speed Precip Events Conditions
12:15 AM 66.2 °F 62.6 °F 88% 29.82 in 10.0 mi SE 8.1 mph - N/A   Clear
12:55 AM 66.2 °F 62.6 °F 88% 29.79 in 10.0 mi ESE 8.1 mph - N/A   Clear
1:35 AM 66.2 °F 62.6 °F 88% 29.80 in 10.0 mi SE 5.8 mph - N/A   Clear
1:55 AM 66.2 °F 62.6 °F 88% 29.80 in 10.0 mi SE 8.1 mph - N/A   Scattered Clouds
2:15 AM 66.2 °F 62.6 °F 88% 29.80 in 10.0 mi SE 10.4 mph - N/A   Scattered Clouds
2:35 AM 66.2 °F 62.6 °F 88% 29.79 in 10.0 mi ESE 6.9 mph - N/A   Mostly Cloudy
3:15 AM 66.2 °F 64.4 °F 94% 29.76 in 9.0 mi SSE 5.8 mph - N/A   Overcast
3:35 AM 66.2 °F 62.6 °F 88% 29.72 in 7.0 mi NNW 6.9 mph - N/A   Mostly Cloudy
3:55 AM 66.2 °F 62.6 °F 88% 29.70 in 10.0 mi North 5.8 mph - 0.01 in   Partly Cloudy
4:15 AM 66.2 °F 62.6 °F 88% 29.72 in 10.0 mi NNE 6.9 mph - N/A   Clear
4:35 AM 66.2 °F 62.6 °F 88% 29.73 in 10.0 mi NE 10.4 mph - N/A   Mostly Cloudy
4:55 AM 66.2 °F 62.6 °F 88% 29.70 in 10.0 mi North 8.1 mph - N/A   Mostly Cloudy
5:15 AM 66.2 °F 62.6 °F 88% 29.70 in 10.0 mi NNE 9.2 mph - N/A   Overcast
5:35 AM 66.2 °F 62.6 °F 88% 29.68 in 10.0 mi NE 8.1 mph - N/A   Mostly Cloudy
5:55 AM 66.2 °F 64.4 °F 94% 29.68 in 10.0 mi ENE 8.1 mph - N/A   Mostly Cloudy
6:15 AM 66.2 °F 62.6 °F 88% 29.67 in 10.0 mi East 10.4 mph - N/A   Mostly Cloudy
6:35 AM 66.2 °F 62.6 °F 88% 29.66 in 5.0 mi ENE 11.5 mph 18.4 mph 0.01 in   Mostly Cloudy
6:55 AM 64.4 °F 60.8 °F 88% 29.65 in 8.0 mi NE 6.9 mph - 0.05 in   Overcast
7:15 AM 64.4 °F 60.8 °F 88% 29.64 in 10.0 mi NE 10.4 mph 16.1 mph 0.01 in   Overcast
7:35 AM 66.2 °F 62.6 °F 88% 29.64 in 9.0 mi ENE 11.5 mph 18.4 mph 0.01 in   Overcast
7:55 AM 66.2 °F 62.6 °F 88% 29.62 in 4.0 mi ENE 15.0 mph 21.9 mph 0.12 in   Overcast
8:35 AM 64.4 °F 60.8 °F 88% 29.60 in 5.0 mi ENE 9.2 mph - 0.13 in   Overcast
8:55 AM 66.2 °F 62.6 °F 88% 29.60 in 3.0 mi East 17.3 mph 27.6 mph 0.17 in   Overcast
9:15 AM 64.4 °F 60.8 °F 88% 29.59 in 10.0 mi ENE 13.8 mph 23.0 mph 0.01 in   Overcast
9:35 AM 64.4 °F 60.8 °F 88% 29.57 in 9.0 mi NE 15.0 mph 21.9 mph 0.01 in   Overcast
9:55 AM 64.4 °F 62.6 °F 94% 29.57 in 7.0 mi ENE 15.0 mph 25.3 mph 0.01 in   Mostly Cloudy
10:15 AM 64.4 °F 62.6 °F 94% 29.56 in 6.0 mi ENE 15.0 mph 20.7 mph N/A   Overcast
10:35 AM 66.2 °F 62.6 °F 88% 29.55 in 10.0 mi ENE 10.4 mph 20.7 mph N/A   Overcast
10:55 AM 66.2 °F 62.6 °F 88% 29.54 in 3.0 mi ENE 10.4 mph - 0.01 in   Overcast
11:15 AM 66.2 °F 62.6 °F 88% 29.53 in 7.0 mi East 11.5 mph 16.1 mph N/A   Overcast
11:35 AM 66.2 °F 64.4 °F 94% 29.53 in 7.0 mi East 11.5 mph - N/A   Overcast
11:55 AM 68.0 °F 66.2 °F 94% 29.52 in 5.0 mi East 8.1 mph - N/A   Overcast
12:15 PM 69.8 °F 66.2 °F 88% 29.51 in 3.0 mi ESE 10.4 mph - N/A   Overcast
12:55 PM 69.8 °F 66.2 °F 88% 29.49 in 2.0 mi SE 10.4 mph - N/A   Overcast
1:15 PM 69.8 °F 68.0 °F 94% 29.49 in 5.0 mi SSE 9.2 mph - N/A   Overcast
1:35 PM 69.8 °F 68.0 °F 94% 29.48 in 6.0 mi SE 10.4 mph - N/A   Overcast
1:55 PM 69.8 °F 66.2 °F 88% 29.48 in 8.0 mi SE 9.2 mph - N/A   Overcast
2:15 PM 69.8 °F 66.2 °F 88% 29.48 in 8.0 mi SE 10.4 mph - N/A   Overcast
2:35 PM 69.8 °F 66.2 °F 88% 29.47 in 8.0 mi SE 9.2 mph - N/A   Overcast
2:55 PM 69.8 °F 66.2 °F 88% 29.48 in 9.0 mi SE 6.9 mph - N/A   Overcast
3:15 PM 69.8 °F 66.2 °F 88% 29.46 in 8.0 mi SE 6.9 mph - N/A   Overcast
3:55 PM 69.8 °F 66.2 °F 88% 29.46 in 10.0 mi SE 10.4 mph - N/A   Overcast
4:15 PM 69.8 °F 66.2 °F 88% 29.45 in 10.0 mi SE 9.2 mph - N/A   Overcast
4:35 PM 69.8 °F 66.2 °F 88% 29.44 in 10.0 mi ESE 10.4 mph - N/A   Overcast
4:55 PM 69.8 °F 66.2 °F 88% 29.45 in 10.0 mi SE 10.4 mph - N/A   Overcast
5:15 PM 69.8 °F 66.2 °F 88% 29.44 in 10.0 mi ESE 9.2 mph - N/A   Overcast
5:35 PM 69.8 °F 66.2 °F 88% 29.43 in 3.0 mi ESE 6.9 mph - 0.07 in   Overcast
5:55 PM 69.8 °F 66.2 °F 88% 29.42 in 9.0 mi East 6.9 mph - 0.08 in   Overcast
6:15 PM 68.0 °F 66.2 °F 94% 29.42 in 7.0 mi East 8.1 mph - N/A   Overcast
6:35 PM 68.0 °F 66.2 °F 94% 29.40 in 8.0 mi East 9.2 mph 16.1 mph 0.08 in   Overcast
6:55 PM 68.0 °F 66.2 °F 94% 29.39 in 10.0 mi East 10.4 mph - 0.08 in   Overcast
7:15 PM 68.0 °F 66.2 °F 94% 29.39 in 9.0 mi East 10.4 mph - N/A   Overcast
7:35 PM 69.8 °F 66.2 °F 88% 29.39 in 10.0 mi ESE 10.4 mph - N/A   Mostly Cloudy
7:55 PM 69.8 °F 66.2 °F 88% 29.38 in 7.0 mi East 10.4 mph - N/A   Mostly Cloudy
8:15 PM 69.8 °F 66.2 °F 88% 29.37 in 7.0 mi ESE 10.4 mph 16.1 mph N/A   Overcast
8:35 PM 69.8 °F 66.2 °F 88% 29.36 in 8.0 mi SE 8.1 mph - N/A   Overcast
8:55 PM 69.8 °F 66.2 °F 88% 29.36 in 7.0 mi SSE 15.0 mph 19.6 mph 0.01 in   Overcast
9:15 PM 69.8 °F 68.0 °F 94% 29.36 in 5.0 mi SSE 17.3 mph 24.2 mph N/A   Overcast
9:35 PM 71.6 °F 68.0 °F 88% 29.36 in 4.0 mi South 18.4 mph 27.6 mph N/A   Overcast
9:55 PM 71.6 °F 69.8 °F 94% 29.36 in 4.0 mi South 17.3 mph 25.3 mph N/A   Overcast
10:15 PM 71.6 °F 68.0 °F 88% 29.36 in 4.0 mi South 18.4 mph 29.9 mph N/A   Overcast
10:35 PM 69.8 °F 68.0 °F 94% 29.36 in 3.0 mi South 18.4 mph 25.3 mph N/A   Overcast
10:55 PM 69.8 °F 68.0 °F 94% 29.35 in 3.0 mi South 15.0 mph - N/A   Overcast
11:15 PM 69.8 °F 66.2 °F 88% 29.35 in 3.0 mi South 18.4 mph 24.2 mph N/A   Overcast
11:35 PM 69.8 °F 66.2 °F 88% 29.36 in 4.0 mi South 17.3 mph 25.3 mph N/A   Overcast
11:55 PM 69.8 °F 66.2 °F 88% 29.35 in 4.0 mi South 15.0 mph 25.3 mph N/A   Overcast